Flag for India Weather past 2 weeks in Kapurthala, Punjab, India

Now
73 °F

Fog.


Feels Like: 73 °F
Forecast: 64 / 91 °F
Wind: No wind

Location: Amritsar Airport

Current Time: Oct 23, 2014 at 8:21:46 PM

Latest Report: Oct 23, 2014 at 7:30 PM


Visibility: 2 mi

Pressure: 29.92 "Hg

Humidity: 83%

Dew point: 68 °F

Location of KapurthalaLocation

Historic Weather in Kapurthala — Graph

°F

Kapurthala temperature yesterday

Maximum temperature yesterday: 88 °F (at 2:00 PM)
Minimum temperature yesterday: 63 °F (at 6:00 AM)
Average temperature yesterday: 74 °F

Past Weeks' High & Low Weather Summary

 TemperatureHumidityPressure
High90 °F (Oct 12, 2:30 PM)100% (Oct 8, 10:00 PM)30.09 "Hg (Oct 8, 10:00 PM)
Low57 °F (Oct 15, 7:00 AM)35% (Oct 12, 4:00 PM)29.77 "Hg (Oct 11, 5:00 PM)
Average73 °F75%29.93 "Hg
* Reported Oct 8 6:30 PM — Oct 23 7:00 PM, Kapurthala, Weather by CustomWeather, © 2014

Note: Actual official high and low records may vary slightly from our data, if they occured in-between our weather recording intervals... More about our weather records

Advertising

Kapurthala weather history for previous 24 hours

 ConditionsComfort  
Time TempWeatherWind HumidityBarometerVisibility
7:00 PM
Oct 23
73 °FPassing clouds.No wind83%29.89 "Hg2 mi
6:30 PM77 °FPassing clouds.No wind69%29.89 "Hg2 mi
6:00 PM81 °FHaze.No wind58%29.89 "Hg2 mi
5:30 PM82 °FHaze.No wind55%29.89 "Hg2 mi
5:00 PM84 °FHaze.6 mph48%29.89 "Hg2 mi
4:00 PM86 °FHaze.2 mph46%29.89 "Hg3 mi
3:30 PM86 °FHaze.6 mph46%29.92 "Hg3 mi
3:00 PM86 °FHaze.5 mph43%29.92 "Hg3 mi
2:30 PM86 °FHaze.6 mph43%29.92 "Hg3 mi
2:00 PM86 °FHaze.6 mph46%29.95 "Hg3 mi
1:30 PM86 °FHaze.5 mph46%29.95 "Hg3 mi
1:00 PM86 °FHaze.3 mph46%29.98 "Hg3 mi
12:30 PM86 °FHaze.2 mph46%29.98 "Hg3 mi
12:00 PM86 °FHaze.1 mph46%30.01 "Hg3 mi
11:30 AM86 °FHaze.1 mph46%30.01 "Hg3 mi
11:00 AM84 °FHaze.2 mph48%30.01 "Hg2 mi
10:30 AM84 °FHaze.2 mph51%30.01 "Hg2 mi
10:00 AM81 °FFog.2 mph62%30.01 "Hg1 mi
9:30 AM79 °FFog.No wind70%30.01 "Hg1 mi
9:00 AM77 °FFog.No wind74%30.01 "Hg1 mi
8:30 AM72 °FFog.No wind88%30.01 "Hg1 mi
8:00 AM68 °FFog.No wind100%30.01 "Hg1 mi
7:30 AM64 °FFog.No wind100%29.98 "Hg1 mi
7:00 AM64 °FFog.No wind100%29.98 "Hg1 mi
6:30 AM63 °FFog.No wind100%29.98 "Hg1 mi
6:00 AM63 °FFog.No wind100%29.98 "Hg1 mi
5:30 AM64 °FFog.No wind100%29.95 "Hg1 mi
5:00 AM64 °FFog.No wind100%29.95 "Hg1 mi
4:30 AM64 °FFog.2 mph100%29.95 "Hg1 mi
3:30 AM64 °FFog.2 mph94%29.95 "Hg1 mi
3:00 AM64 °FFog.No wind100%29.95 "Hg1 mi
2:30 AM64 °FFog.No wind100%29.95 "Hg1 mi
2:00 AM64 °FFog.No wind100%29.95 "Hg1 mi
1:30 AM66 °FFog.No wind88%29.95 "Hg1 mi
1:00 AM68 °FFog.No wind88%29.98 "Hg1 mi
12:30 AM66 °FFog.No wind94%29.98 "Hg1 mi
12:00 AM66 °FFog.No wind94%29.98 "Hg1 mi
11:30 PM
Oct 22
68 °FFog.No wind88%29.98 "Hg1 mi
11:00 PM68 °FFog.No wind88%29.98 "Hg2 mi
10:30 PM68 °FFog.No wind88%29.98 "Hg2 mi
10:00 PM70 °FFog.No wind78%29.98 "Hg2 mi
9:30 PM72 °FFog.No wind78%29.98 "Hg2 mi
9:00 PM72 °FFog.No wind78%29.98 "Hg2 mi
8:30 PM72 °FFog.No wind78%29.98 "Hg2 mi
8:00 PM73 °FHaze.No wind74%29.98 "Hg2 mi
Weather by CustomWeather, © 2014

See weather overviewHow to use our weather pages